Wind_Speed
34 34 35 35 34 34 33 33 33 32 31 31 31 30 29 28 28 26 26 25 24 24 24 23 23 22 22 23 23 23 23 23 23 22 22 22 22 22 21 21 21 21 21
35 36 37 36 36 35 34 34 34 34 33 33 32 31 31 30 29 28 28 27 26 26 25 25 25 24 24 24 25 24 25 26 25 25 25 24 23 23 23 23 23 23 23
37 37 38 38 38 37 36 36 36 36 36 36 35 34 33 32 32 31 30 29 29 28 27 27 27 26 25 25 26 26 26 27 27 27 27 26 26 25 25 25 25 25 25
39 39 40 40 40 39 39 38 38 38 38 37 37 36 34 34 34 34 32 32 31 30 30 30 29 28 28 28 28 28 27 28 28 28 29 28 28 28 27 27 27 27 27
41 41 42 41 41 41 41 39 39 39 39 39 38 38 37 36 36 35 34 34 33 33 32 32 31 30 30 29 29 29 30 29 30 30 30 30 30 30 30 30 29 29 29
41 42 43 43 43 43 42 41 41 40 40 39 39 40 40 38 37 37 36 35 35 35 34 33 32 32 32 32 32 31 31 31 32 32 33 33 33 33 32 31 32 32 31
43 43 43 44 44 44 43 43 43 42 41 41 41 41 41 40 40 38 38 38 37 37 36 35 34 34 35 35 34 34 34 34 34 34 34 35 35 35 35 34 34 34 33
43 44 44 45 45 45 45 44 45 44 43 43 43 43 43 42 41 40 40 39 39 38 38 37 37 36 37 37 37 36 36 36 35 36 36 36 37 37 37 36 36 36 36
45 44 44 46 46 46 46 46 46 45 45 45 46 45 44 43 43 43 42 41 40 40 40 39 39 39 39 39 39 39 38 38 37 37 38 38 37 38 38 38 38 38 37
46 45 45 46 46 47 46 46 46 46 47 47 47 47 46 45 44 44 44 43 42 42 42 42 42 41 41 41 41 40 40 40 39 39 39 39 38 39 40 40 40 40 40
47 46 46 46 46 47 47 47 46 47 48 48 47 48 47 47 46 45 44 44 44 44 44 43 43 43 43 43 43 42 42 42 42 41 41 41 41 40 41 41 41 42 42
47 46 45 46 46 47 48 48 47 47 48 48 48 48 47 48 48 47 46 45 45 45 45 45 44 44 44 44 44 44 44 43 43 43 43 42 43 43 43 43 43 43 43
48 48 47 47 47 47 48 48 47 47 47 48 48 48 48 48 48 47 47 46 45 45 45 45 45 45 45 45 45 45 45 45 44 44 44 44 44 44 44 44 44 44 44
48 48 48 48 47 48 49 49 48 48 48 49 49 49 49 48 48 48 48 48 48 47 46 45 46 46 46 45 46 46 45 46 45 45 45 45 45 45 45 45 45 44 44
48 48 47 48 47 47 48 49 49 50 50 50 50 51 50 50 50 50 50 50 49 49 48 47 47 48 48 48 47 47 47 48 48 47 47 46 46 45 46 46 46 45 45
49 47 48 48 48 47 48 49 49 50 50 50 50 51 52 52 51 51 50 50 50 50 49 49 49 50 51 51 50 50 50 50 50 49 48 47 47 47 48 48 47 47 47
50 49 48 48 49 48 48 48 48 50 51 50 50 50 50 51 51 51 50 50 51 51 51 50 51 51 52 52 52 51 51 51 50 50 49 49 49 49 48 49 49 49 49
49 50 50 49 48 48 48 48 48 49 50 50 49 49 49 50 51 51 52 52 51 51 52 52 52 52 52 52 51 51 51 52 51 51 51 50 50 50 50 50 51 51 51
50 50 50 50 49 48 49 49 49 49 49 49 50 50 50 50 51 51 51 52 53 53 53 52 52 52 52 52 52 51 51 52 52 52 52 52 51 51 52 52 52 52 52
50 51 51 51 50 50 50 50 49 50 50 50 50 50 51 51 51 51 52 53 53 53 53 53 53 52 52 52 53 52 52 52 52 52 52 52 52 52 52 52 52 53 53
49 50 51 51 51 51 51 51 51 51 51 51 51 51 52 53 53 53 53 53 54 54 54 54 54 53 53 53 53 53 53 52 52 52 52 52 53 53 52 53 53 53 53
49 49 50 52 52 51 51 51 51 51 51 51 52 52 53 53 54 55 55 55 55 55 55 55 54 54 54 54 54 54 54 53 53 53 53 52 53 53 53 53 53 53 54
47 47 49 50 51 51 52 52 52 52 52 52 52 53 53 53 54 54 55 55 56 55 55 55 55 54 54 54 55 55 55 54 54 54 54 53 54 54 54 54 54 54 55
45 46 47 48 50 51 51 51 52 52 52 53 53 53 53 53 53 54 55 55 55 55 56 56 55 55 55 56 56 56 56 55 55 55 55 55 56 56 55 55 55 55 56
44 45 46 47 49 49 50 51 52 52 52 53 53 53 53 54 54 54 55 55 55 55 55 55 56 55 56 56 56 56 55 55 55 55 56 56 55 55 55 55 55 55 56
43 44 45 47 48 49 49 50 51 52 52 52 52 53 54 54 55 55 55 55 54 55 55 55 55 56 56 56 56 56 56 56 55 55 55 56 56 56 56 56 56 56 56
Wind_Direction
245 245 245 245 246 246 245 246 246 246 246 246 246 246 247 247 248 250 252 253 252 253 255 255 256 258 260 261 263 264 263 264 264 265 266 267 268 269 271 272 273 273 273
245 245 245 244 244 245 246 246 246 246 245 245 246 246 247 249 249 249 251 252 253 254 255 256 257 258 260 262 262 263 263 263 264 264 266 267 268 270 271 273 274 274 274
246 246 246 245 244 244 246 247 248 247 246 246 247 248 248 250 251 252 253 253 253 255 256 257 258 258 259 262 263 263 265 264 265 265 266 267 269 270 271 272 273 274 273
247 248 247 247 246 245 246 247 248 248 247 247 248 248 248 249 251 252 253 253 254 256 257 258 258 258 260 261 263 265 267 267 266 266 266 267 268 269 270 271 272 272 273
248 249 249 249 247 246 246 247 248 248 248 247 248 249 249 249 250 250 252 254 256 256 258 258 258 259 261 263 265 267 268 268 268 267 267 267 267 268 268 270 271 271 272
248 249 249 248 247 246 247 247 248 248 248 248 248 248 249 250 250 251 252 254 256 257 257 258 260 261 262 264 265 267 268 268 268 267 267 267 266 266 266 268 269 270 271
249 249 249 249 247 246 247 247 247 247 247 248 248 248 249 250 251 252 253 254 255 256 257 259 260 262 264 266 266 267 268 269 268 268 269 268 267 266 266 267 269 269 270
249 249 250 249 247 247 247 247 246 247 248 248 249 250 250 249 250 251 253 254 255 256 258 259 261 263 264 265 267 268 268 269 269 269 268 268 268 267 267 268 268 269 270
249 249 250 249 247 247 248 247 246 248 249 249 250 251 251 250 250 251 252 254 255 257 258 260 261 263 264 265 266 267 267 268 268 268 269 269 268 267 267 267 268 269 270
250 249 248 248 248 247 247 247 247 248 249 250 250 251 251 251 251 251 252 253 255 257 258 260 261 263 264 265 265 265 266 267 268 268 269 270 269 268 269 268 268 268 269
250 250 250 249 249 248 247 248 248 249 250 250 251 251 250 250 251 252 253 254 256 257 258 260 261 262 264 264 264 264 265 266 267 268 269 270 270 269 269 269 269 269 269
250 250 250 250 250 249 248 248 248 249 249 250 251 251 250 251 253 254 254 254 256 257 258 260 261 262 263 263 264 265 266 266 267 267 269 269 269 269 269 270 270 270 270
250 250 250 250 250 251 250 249 248 249 249 250 251 251 250 252 253 254 255 255 256 257 258 259 260 261 262 263 263 264 265 266 267 267 268 268 269 269 269 269 270 270 270
249 250 251 250 250 250 251 250 249 249 249 250 251 251 250 251 253 254 255 257 257 257 258 259 259 260 262 262 263 264 265 266 267 267 267 268 269 269 270 270 269 270 270
250 250 249 249 249 250 250 250 250 250 250 250 250 251 252 252 252 254 255 257 258 258 258 260 260 261 261 262 263 264 264 265 266 266 267 268 269 269 270 270 270 270 270
249 249 249 248 248 249 250 251 250 251 251 251 250 250 251 252 253 254 255 256 257 258 258 259 261 262 262 263 264 264 264 264 265 267 267 268 268 268 268 269 270 270 269
248 248 249 249 250 250 250 251 252 252 251 251 251 251 252 252 252 254 255 256 257 258 259 260 261 262 262 263 263 264 265 265 267 268 268 268 268 268 268 269 269 270 270
248 248 248 249 250 251 251 251 251 251 251 252 253 253 253 253 253 253 253 254 256 258 259 261 261 261 262 263 263 264 265 266 267 268 269 268 268 268 269 269 270 270 270
249 249 249 249 250 250 251 251 252 252 253 254 255 255 254 255 255 254 254 255 256 258 259 260 260 261 262 263 264 264 266 267 267 268 268 269 269 269 270 271 271 271 272
250 250 250 250 250 251 251 252 253 253 254 255 255 255 255 255 255 255 255 256 257 258 259 260 261 262 262 263 264 264 266 266 267 267 268 269 269 271 271 271 271 272 272
250 250 250 250 252 252 252 252 253 254 254 255 256 256 256 255 255 255 256 257 258 259 260 261 262 262 263 263 264 265 265 266 266 266 267 269 270 271 271 271 271 272 272
250 250 250 251 252 252 253 254 254 254 254 255 256 256 256 256 256 256 256 257 258 259 260 262 262 263 263 263 264 265 265 266 266 266 267 268 269 270 271 271 271 272 273
251 250 251 252 252 253 254 256 255 255 255 255 256 256 257 257 257 257 257 258 259 260 261 262 263 263 263 263 264 265 266 267 267 267 267 268 269 270 270 271 271 271 273
251 251 251 252 253 255 255 256 256 256 255 255 255 256 257 257 258 258 258 259 260 261 262 262 263 263 264 264 265 265 266 267 267 267 267 269 270 271 271 271 271 271 272
251 251 252 253 254 255 256 256 257 256 256 257 257 257 257 258 258 259 259 259 259 260 262 263 263 264 264 264 265 266 267 267 267 267 268 270 271 271 271 271 271 271 271
252 253 254 254 255 256 256 257 257 257 257 257 257 258 258 258 258 259 260 260 260 261 262 263 264 264 264 264 265 267 268 268 268 268 269 270 271 271 271 271 271 271 271
Height
5788 5790 5792 5794 5797 5799 5801 5803 5805 5807 5809 5810 5812 5814 5815 5816 5818 5819 5820 5821 5822 5823 5823 5824 5824 5825 5825 5826 5826 5826 5827 5827 5827 5827 5827 5827 5827 5827 5827 5826 5826 5826 5825
5780 5782 5784 5787 5789 5792 5794 5796 5798 5800 5802 5804 5806 5807 5809 5810 5812 5813 5814 5815 5816 5817 5818 5818 5819 5820 5820 5820 5821 5821 5821 5821 5822 5822 5822 5822 5822 5822 5822 5821 5821 5821 5820
5772 5774 5776 5779 5781 5784 5786 5788 5791 5793 5795 5797 5799 5801 5802 5804 5805 5806 5808 5809 5810 5811 5812 5812 5813 5813 5814 5814 5815 5815 5815 5815 5816 5816 5816 5816 5816 5816 5816 5816 5815 5815 5815
5763 5765 5767 5770 5772 5775 5778 5780 5783 5785 5787 5789 5791 5793 5795 5796 5798 5799 5801 5802 5803 5804 5805 5806 5807 5807 5807 5808 5808 5809 5809 5809 5809 5809 5810 5810 5810 5810 5810 5810 5809 5809 5809
5753 5755 5757 5760 5763 5766 5769 5772 5774 5776 5778 5780 5783 5785 5787 5789 5790 5792 5793 5795 5796 5797 5798 5799 5800 5800 5800 5801 5801 5802 5802 5802 5802 5802 5802 5802 5802 5803 5803 5803 5802 5802 5802
5743 5745 5748 5750 5753 5756 5760 5762 5765 5767 5770 5772 5774 5776 5778 5780 5782 5784 5786 5787 5788 5789 5790 5791 5792 5792 5792 5793 5793 5794 5795 5795 5795 5795 5795 5795 5795 5795 5795 5795 5795 5795 5795
5733 5735 5738 5740 5743 5746 5749 5752 5755 5758 5760 5763 5765 5767 5769 5771 5773 5775 5777 5778 5779 5780 5781 5782 5783 5784 5784 5785 5785 5786 5786 5787 5787 5787 5787 5786 5787 5787 5787 5787 5787 5787 5787
5723 5725 5727 5730 5732 5736 5739 5742 5745 5747 5750 5753 5755 5757 5760 5763 5764 5766 5768 5769 5770 5771 5772 5773 5774 5775 5776 5776 5777 5777 5777 5778 5778 5778 5778 5777 5777 5778 5778 5778 5779 5778 5778
5712 5714 5717 5719 5722 5725 5728 5731 5734 5737 5740 5742 5745 5747 5750 5753 5755 5757 5758 5760 5761 5762 5763 5763 5764 5765 5766 5767 5767 5768 5768 5768 5768 5768 5769 5768 5768 5769 5769 5769 5769 5769 5769
5700 5703 5705 5708 5711 5714 5717 5720 5723 5726 5729 5731 5734 5736 5739 5742 5744 5746 5748 5749 5750 5752 5752 5753 5754 5755 5756 5756 5757 5758 5758 5758 5758 5759 5759 5759 5759 5759 5759 5760 5760 5760 5760
5688 5691 5694 5697 5699 5702 5706 5709 5712 5715 5717 5720 5722 5725 5727 5730 5732 5735 5737 5739 5740 5741 5742 5743 5744 5745 5745 5746 5746 5747 5748 5748 5748 5748 5749 5749 5749 5749 5749 5749 5749 5750 5750
5676 5679 5682 5685 5688 5691 5694 5697 5700 5703 5705 5708 5710 5713 5715 5718 5720 5723 5725 5728 5729 5730 5731 5732 5733 5733 5734 5735 5735 5736 5737 5737 5737 5738 5738 5738 5738 5738 5738 5738 5738 5739 5739
5664 5667 5670 5673 5676 5679 5682 5685 5688 5691 5693 5696 5698 5701 5703 5706 5708 5711 5713 5715 5717 5719 5720 5721 5721 5722 5722 5723 5724 5724 5725 5726 5726 5727 5727 5727 5727 5727 5727 5727 5727 5727 5728
5652 5654 5657 5660 5663 5666 5669 5672 5675 5678 5681 5683 5686 5688 5690 5693 5696 5698 5701 5703 5705 5707 5708 5709 5710 5710 5711 5712 5712 5713 5713 5714 5714 5715 5715 5715 5715 5715 5716 5716 5716 5716 5716
5639 5642 5645 5647 5650 5653 5656 5659 5662 5665 5668 5671 5673 5676 5678 5680 5683 5685 5688 5690 5692 5694 5696 5697 5698 5699 5699 5700 5700 5701 5701 5702 5702 5702 5702 5703 5703 5703 5703 5704 5704 5704 5704
5626 5629 5632 5635 5638 5641 5644 5646 5649 5651 5654 5657 5660 5662 5665 5667 5669 5672 5674 5676 5678 5680 5683 5685 5686 5686 5686 5687 5687 5688 5688 5689 5689 5689 5690 5690 5690 5690 5690 5691 5691 5691 5691
5613 5617 5620 5623 5626 5628 5631 5633 5635 5638 5641 5643 5646 5649 5651 5654 5656 5658 5660 5663 5665 5667 5669 5672 5672 5673 5673 5673 5674 5674 5675 5675 5676 5676 5676 5676 5677 5677 5677 5677 5677 5678 5678
5600 5603 5607 5610 5613 5615 5618 5620 5622 5624 5628 5630 5633 5635 5638 5640 5642 5645 5647 5649 5651 5653 5655 5657 5658 5659 5659 5659 5660 5660 5661 5661 5662 5663 5663 5663 5663 5663 5663 5663 5663 5664 5664
5587 5590 5593 5596 5599 5602 5605 5607 5609 5612 5614 5617 5619 5622 5624 5626 5628 5630 5633 5635 5637 5639 5640 5642 5644 5644 5645 5645 5646 5647 5647 5647 5648 5649 5649 5649 5649 5649 5649 5649 5649 5649 5649
5573 5577 5580 5583 5586 5589 5592 5594 5596 5598 5601 5603 5605 5607 5610 5613 5615 5617 5619 5621 5622 5624 5626 5627 5629 5630 5631 5631 5631 5632 5633 5634 5634 5634 5635 5635 5635 5635 5635 5635 5635 5635 5635
5560 5563 5566 5569 5572 5575 5578 5580 5583 5585 5587 5589 5591 5593 5596 5598 5600 5602 5604 5606 5607 5609 5611 5612 5614 5615 5616 5616 5617 5618 5618 5619 5620 5620 5620 5621 5621 5621 5620 5620 5620 5619 5619
5547 5549 5552 5555 5558 5561 5563 5566 5568 5570 5572 5575 5577 5579 5581 5583 5585 5586 5589 5590 5592 5594 5595 5597 5599 5600 5601 5601 5602 5602 5603 5604 5606 5607 5606 5606 5606 5606 5605 5605 5605 5604 5604
5533 5535 5538 5541 5544 5547 5549 5551 5553 5555 5558 5560 5562 5564 5566 5568 5569 5571 5573 5575 5577 5578 5580 5582 5583 5584 5585 5586 5587 5588 5588 5588 5590 5590 5590 5591 5590 5590 5590 5589 5589 5588 5587
5520 5522 5525 5528 5530 5533 5535 5536 5538 5540 5543 5545 5547 5549 5551 5553 5554 5556 5558 5559 5561 5563 5564 5566 5568 5569 5568 5569 5570 5571 5571 5572 5573 5574 5573 5574 5574 5574 5574 5573 5572 5572 5571
5507 5509 5512 5514 5516 5519 5520 5522 5524 5526 5528 5531 5533 5534 5536 5538 5540 5540 5542 5545 5546 5547 5547 5549 5550 5551 5552 5553 5554 5554 5555 5556 5558 5558 5557 5557 5558 5557 5557 5556 5555 5554 5554
5495 5497 5499 5501 5503 5505 5506 5508 5509 5511 5514 5516 5518 5520 5521 5523 5524 5524 5527 5529 5531 5532 5533 5534 5535 5535 5536 5537 5537 5538 5539 5539 5540 5542 5542 5541 5540 5539 5540 5540 5538 5537 5537